This is the latest recevied weather packets stored in our database for station/object AD8IZ-13. If no packets are shown the sender has not sent any weather packets the latest 1 day(s).
| Time | Temp. | Humidity | Pressure | Rain* | Wind** | Luminosity | Snow |
|---|---|---|---|---|---|---|---|
| 1778015719 | 21.67° C | 65% | 1006.6 hPa | 0 mm | 1.34 m/s, 185° | 210 W/m² | - |
| 1778015119 | 21.11° C | 65% | 1006.6 hPa | 0 mm | 1.34 m/s, 164° | 328 W/m² | - |
| 1778014521 | 21.11° C | 66% | 1006.9 hPa | 0 mm | 1.34 m/s, 177° | 260 W/m² | - |
| 1778013919 | 20.56° C | 66% | 1007 hPa | 0 mm | 1.34 m/s, 185° | 59 W/m² | - |
| 1778013319 | 21.11° C | 67% | 1007.1 hPa | 0 mm | 0.89 m/s, 171° | 87 W/m² | - |
| 1778012720 | 21.11° C | 67% | 1007.1 hPa | 0 mm | 0.89 m/s, 169° | 100 W/m² | - |
| 1778012120 | 21.11° C | 66% | 1007.2 hPa | 0 mm | 0.89 m/s, 187° | 148 W/m² | - |
| 1778011520 | 20.56° C | 67% | 1007.4 hPa | 0 mm | 0.89 m/s, 174° | 179 W/m² | - |
| 1778010918 | 20.56° C | 66% | 1007.4 hPa | 0 mm | 1.34 m/s, 192° | 175 W/m² | - |
| 1778010327 | 20.56° C | 67% | 1007.5 hPa | 0 mm | 0.45 m/s, 194° | 178 W/m² | - |
| 1778009720 | 20.56° C | 68% | 1007.7 hPa | 0 mm | 0.89 m/s, 194° | 198 W/m² | - |
| 1778009121 | 20.56° C | 67% | 1007.9 hPa | 0 mm | 0.89 m/s, 189° | 136 W/m² | - |
| 1778008518 | 20.56° C | 68% | 1008 hPa | 0 mm | 0.45 m/s, 185° | 108 W/m² | - |
| 1778007918 | 20.56° C | 67% | 1008.1 hPa | 0 mm | 0.45 m/s, 179° | 169 W/m² | - |
| 1778007318 | 20° C | 67% | 1008.2 hPa | 0 mm | 0.89 m/s, 183° | 158 W/m² | - |
| 1778006721 | 20° C | 67% | 1008.3 hPa | 0 mm | 0.89 m/s, 207° | 135 W/m² | - |
| 1778006118 | 20° C | 67% | 1008.3 hPa | 0 mm | 0.89 m/s, 197° | 135 W/m² | - |
| 1778005519 | 20° C | 68% | 1008.2 hPa | 0 mm | 0.45 m/s, 185° | 96 W/m² | - |
| 1778004924 | 20.56° C | 66% | 1008.1 hPa | 0 mm | 1.34 m/s, 182° | 69 W/m² | - |
| 1778004319 | 20.56° C | 66% | 1008.1 hPa | 0 mm | 1.34 m/s, 184° | 154 W/m² | - |
| 1778003719 | 20.56° C | 66% | 1008.1 hPa | 0 mm | 0.89 m/s, 189° | 90 W/m² | - |
| 1778003122 | 21.11° C | 66% | 1008.1 hPa | 0 mm | 0.89 m/s, 208° | 109 W/m² | - |
| 1778002520 | 21.11° C | 65% | 1008.1 hPa | 0 mm | 1.34 m/s, 195° | 78 W/m² | - |
| 1778001920 | 21.67° C | 64% | 1008.2 hPa | 0 mm | 0.89 m/s, 195° | 168 W/m² | - |
| 1778001320 | 22.22° C | 64% | 1008.2 hPa | 0 mm | 0.89 m/s, 204° | 287 W/m² | - |
* Rain latest hour (hover to see other rain measurements)
** Current wind speed in m/s (hover to see current wind gust speed)